Regional Weather Roundup
Issued by NWS

Home | Current Version | Previous Version | Graphics & Text | Print | Product List | Glossary On
Versions: 1 2 3 4 5 6 7 8 9 10 11 12 13 14 15 16 17 18 19 20 21 22 23 24 25 26 27 28 29 30 31 32 33 34 35 36 37 38 39 40 41 42 43 44 45 46 47 48 49 50
634
ASUS45 KBOI 271410
RWRID

IDAHO REGIONAL WEATHER ROUNDUP
NATIONAL WEATHER SERVICE BOISE ID
700 AM MST MON FEB 27 2017

NOTE: "FAIR" INDICATES FEW OR NO CLOUDS BELOW 12000 FEET
WITH NO SIGNIFICANT WEATHER AND/OR OBSTRUCTIONS TO VISIBILITY

IDZ012-014-271500-
SOUTHWEST IDAHO


CITY           SKY/WX    TMP DP  RH WIND       PRES   REMARKS
BOISE          CLOUDY    29  25  85 SE3       29.68R
CALDWELL       CLOUDY    28  26  92 CALM      29.71R
MOUNTAIN HOME  MOCLDY    27  27 100 NE3       29.67R
$$

IDZ016-017-271500-
SOUTHCENTRAL IDAHO


CITY           SKY/WX    TMP DP  RH WIND       PRES   REMARKS
BURLEY         FOG       26  22  84 E7        29.60S VSB 1/2 WCI  18
JEROME           N/A    N/A N/A N/A MISG      29.61S
TWIN FALLS     CLOUDY    27  20  75 S10       29.60S WCI  17
$$

IDZ019>023-271500-
SOUTHEAST IDAHO


CITY           SKY/WX    TMP DP  RH WIND       PRES   REMARKS
IDAHO FALLS    CLOUDY    20  20 100 W6        29.61S WCI  12
POCATELLO      FLURRIES  25  22  88 NE7       29.61F WCI  17
REXBURG        CLOUDY    21  20  96 SW8       29.60S WCI  11
$$

IDZ006-010-011-018-031-032-271500-
CENTRAL IDAHO MOUNTAINS


CITY           SKY/WX    TMP DP  RH WIND       PRES   REMARKS
MCCALL         CLOUDY    21  17  84 CALM      29.53R
HAILEY         MOCLDY     9   3  78 NW12G17   29.59S WCI  -6
STANLEY          N/A      4   0  83 CALM      29.52S
SALMON         CLOUDY    19  12  73 N3        29.58S
CHALLIS        CLOUDY    12   7  80 NW3       29.56F
$$

IDZ002-004-006-007-026-271500-
NORTHERN IDAHO


CITY           SKY/WX    TMP DP  RH WIND       PRES   REMARKS
LEWISTON       CLOUDY    30  28  92 SW3       29.69R
LOWELL           N/A     31  28  89 CALM      29.68S
COEUR D`ALENE  FLURRIES  27  25  92 W3        29.63S
MULLAN PASS    LGT SNOW  16  11  80 VRB3      29.43S
$$




USA.gov is the U.S. government's official web portal to all federal, state and local government web resources and services.